Weather History for KSAD - March, 2013

Change the Weather History Date:

Monday, March 4, 2013

  Actual Average Record
Temperature  
Mean Temperature 60 °F -  
Max Temperature 73 °F 65 °F 81 °F (1972)
Min Temperature 46 °F 34 °F 16 °F (1965)
Degree Days  
Heating Degree Days 6    
Growing Degree Days 10 (Base 50)    
Moisture  
Dew Point 21 °F    
Average Humidity 24    
Maximum Humidity 41    
Minimum Humidity 13    
Precipitation  
Precipitation 0.00 in - - ()
Sea Level Pressure  
Sea Level Pressure 29.85 in    
Wind  
Wind Speed 10 mph (NW)    
Max Wind Speed 32 mph    
Max Gust Speed 41 mph    
Visibility 10 miles    
Events      
Averages and records for this station are not official NWS values.
T = Trace of Precipitation, MM = Missing Value Source: NWS Daily Summary

Daily Weather History Graph

Daily Weather History Graph

Search for Another Location

Airport or City:

Trip Planner

Search our weather history database for the weather conditions in past years. The results will help you decide how hot, cold, wet, or windy it might be!

Date:

Astronomy

Mar. 04, 2013 Rise Set
Actual Time 6:42 AM MST 6:18 PM MST
Civil Twilight 6:17 AM MST 6:43 PM MST
Nautical Twilight 5:49 AM MST 7:11 PM MST
Astronomical Twilight 5:20 AM MST 7:40 PM MST
Moon 12:42 AM MST (3/4) 11:16 AM MST (3/4)
Length of Visible Light 12h 25m
Length of Day
11h 35m
Waning Gibbous, 51% of the Moon is Illuminated
Mar 4
Waning Gibbous
Mar 4
Last Quarter
Mar 11
New
Mar 19
First Quarter
Mar 27
Full

Hourly Weather History & Observations

Time (MST) Temp. Windchill Dew Point Humidity Pressure Visibility Wind Dir Wind Speed Gust Speed Precip Events Conditions
12:51 AM 57.9 °F - 18.0 °F 21% 29.81 in 10.0 mi WSW 5.8 mph - N/A   Partly Cloudy
1:51 AM 57.0 °F - 18.0 °F 22% 29.81 in 10.0 mi Variable 3.5 mph - N/A   Clear
2:51 AM 55.9 °F - 19.0 °F 24% 29.81 in 10.0 mi Calm Calm - N/A   Overcast
3:51 AM 53.1 °F - 19.0 °F 26% 29.78 in 10.0 mi East 6.9 mph - N/A   Mostly Cloudy
4:51 AM 48.9 °F - 19.0 °F 31% 29.79 in 10.0 mi East 3.5 mph - N/A   Partly Cloudy
5:51 AM 51.1 °F - 19.0 °F 28% 29.81 in 10.0 mi East 4.6 mph - N/A   Clear
6:51 AM 46.0 °F 44.8 °F 18.0 °F 33% 29.82 in 10.0 mi ENE 3.5 mph - N/A   Clear
7:51 AM 51.1 °F - 18.0 °F 27% 29.83 in 10.0 mi Calm Calm - N/A   Partly Cloudy
8:51 AM 64.0 °F - 17.1 °F 16% 29.82 in 10.0 mi NW 5.8 mph - N/A   Mostly Cloudy
9:51 AM 66.0 °F - 17.1 °F 15% 29.82 in 10.0 mi WNW 15.0 mph - N/A   Clear
10:51 AM 69.1 °F - 15.1 °F 13% 29.81 in 10.0 mi NW 19.6 mph 24.2 mph N/A   Scattered Clouds
11:51 AM 71.1 °F - 17.1 °F 13% 29.80 in 10.0 mi NW 24.2 mph 31.1 mph N/A   Clear
12:51 PM 73.0 °F - 23.0 °F 15% 29.78 in 10.0 mi NNW 25.3 mph 31.1 mph N/A   Clear
1:51 PM 72.0 °F - 27.0 °F 19% 29.76 in 10.0 mi NW 32.2 mph 39.1 mph N/A   Clear
2:51 PM 72.0 °F - 27.0 °F 19% 29.77 in 10.0 mi WNW 31.1 mph 41.4 mph N/A   Clear
3:51 PM 70.0 °F - 21.0 °F 16% 29.82 in 10.0 mi WNW 26.5 mph 35.7 mph N/A   Clear
4:51 PM 68.0 °F - 24.1 °F 19% 29.86 in 10.0 mi WNW 21.9 mph 28.8 mph N/A   Clear
5:51 PM 64.9 °F - 24.1 °F 21% 29.90 in 10.0 mi WNW 17.3 mph 24.2 mph N/A   Clear
6:51 PM 61.0 °F - 25.0 °F 25% 29.94 in 10.0 mi WNW 12.7 mph - N/A   Clear
7:51 PM 55.9 °F - 25.0 °F 30% 29.97 in 10.0 mi NNW 8.1 mph - N/A   Clear
8:51 PM 55.0 °F - 25.0 °F 31% 29.97 in 10.0 mi NNW 9.2 mph - N/A   Clear
9:51 PM 54.0 °F - 26.1 °F 34% 29.99 in 10.0 mi NNW 10.4 mph - N/A   Clear
10:51 PM 52.0 °F - 25.0 °F 35% 30.00 in 10.0 mi NW 12.7 mph - N/A   Clear
11:51 PM 48.9 °F - 26.1 °F 41% 30.02 in 10.0 mi North 6.9 mph - N/A   Clear